Year,Month,Day,Hour,Minute,Value (Times are PST for temperature in C)
2014,07,04,00,00,12.60
2014,07,04,00,01,12.60
2014,07,04,00,02,12.60
2014,07,04,00,03,12.60
2014,07,04,00,04,12.60
2014,07,04,00,05,12.50
2014,07,04,00,06,12.50
2014,07,04,00,07,12.50
2014,07,04,00,08,12.50
2014,07,04,00,09,12.50
2014,07,04,00,10,12.50
2014,07,04,00,11,12.40
2014,07,04,00,12,12.40
2014,07,04,00,13,12.40
2014,07,04,00,14,12.40
2014,07,04,00,15,12.40
2014,07,04,00,16,12.40
2014,07,04,00,17,12.40
2014,07,04,00,18,12.40
2014,07,04,00,19,12.40
2014,07,04,00,20,12.30
2014,07,04,00,21,12.30
2014,07,04,00,22,12.30
2014,07,04,00,23,12.30
2014,07,04,00,24,12.30
2014,07,04,00,25,12.30
2014,07,04,00,26,12.30
2014,07,04,00,27,12.30
2014,07,04,00,28,12.20
2014,07,04,00,29,12.20
2014,07,04,00,30,12.20
2014,07,04,00,31,12.20
2014,07,04,00,32,12.20
2014,07,04,00,33,12.20
2014,07,04,00,34,12.20
2014,07,04,00,35,12.20
2014,07,04,00,36,12.10
2014,07,04,00,37,12.10
2014,07,04,00,38,12.10
2014,07,04,00,39,12.10
2014,07,04,00,40,12.00
2014,07,04,00,41,12.00
2014,07,04,00,42,11.90
2014,07,04,00,43,11.90
2014,07,04,00,44,11.90
2014,07,04,00,45,11.80
2014,07,04,00,46,11.90
2014,07,04,00,47,11.80
2014,07,04,00,48,11.80
2014,07,04,00,49,11.80
2014,07,04,00,50,11.80
2014,07,04,00,51,11.80
2014,07,04,00,52,11.80
2014,07,04,00,53,11.70
2014,07,04,00,54,11.70
2014,07,04,00,55,11.70
2014,07,04,00,56,11.70
2014,07,04,00,57,11.70
2014,07,04,00,58,11.60
2014,07,04,00,59,11.60
2014,07,04,01,00,11.60
2014,07,04,01,01,11.50
2014,07,04,01,02,11.50
2014,07,04,01,03,11.50
2014,07,04,01,04,11.40
2014,07,04,01,05,11.40
2014,07,04,01,06,11.40
2014,07,04,01,07,11.40
2014,07,04,01,08,11.40
2014,07,04,01,09,11.30
2014,07,04,01,10,11.30
2014,07,04,01,11,11.30
2014,07,04,01,12,11.30
2014,07,04,01,13,11.30
2014,07,04,01,14,11.30
2014,07,04,01,15,11.20
2014,07,04,01,16,11.20
2014,07,04,01,17,11.20
2014,07,04,01,18,11.20
2014,07,04,01,19,11.20
2014,07,04,01,20,11.10
2014,07,04,01,21,11.10
2014,07,04,01,22,11.10
2014,07,04,01,23,11.10
2014,07,04,01,24,11.10
2014,07,04,01,25,11.10
2014,07,04,01,26,11.10
2014,07,04,01,27,11.10
2014,07,04,01,28,11.10
2014,07,04,01,29,11.10
2014,07,04,01,30,11.10
2014,07,04,01,31,11.10
2014,07,04,01,32,11.10
2014,07,04,01,33,11.00
2014,07,04,01,34,11.00
2014,07,04,01,35,11.00
2014,07,04,01,36,11.00
2014,07,04,01,37,11.00
2014,07,04,01,38,11.00
2014,07,04,01,39,11.00
2014,07,04,01,40,11.00
2014,07,04,01,41,11.00
2014,07,04,01,42,11.00
2014,07,04,01,43,11.00
2014,07,04,01,44,11.00
2014,07,04,01,45,11.00
2014,07,04,01,46,10.90
2014,07,04,01,47,10.90
2014,07,04,01,48,10.90
2014,07,04,01,49,10.90
2014,07,04,01,50,10.90
2014,07,04,01,51,10.90
2014,07,04,01,52,10.90
2014,07,04,01,53,10.90
2014,07,04,01,54,10.80
2014,07,04,01,55,10.80
2014,07,04,01,56,10.80
2014,07,04,01,57,10.80
2014,07,04,01,58,10.80
2014,07,04,01,59,10.80
2014,07,04,02,00,10.80
2014,07,04,02,01,10.70
2014,07,04,02,02,10.70
2014,07,04,02,03,10.80
2014,07,04,02,04,10.80
2014,07,04,02,05,10.70
2014,07,04,02,06,10.70
2014,07,04,02,07,10.70
2014,07,04,02,08,10.70
2014,07,04,02,09,10.70
2014,07,04,02,10,10.70
2014,07,04,02,11,10.70
2014,07,04,02,12,10.70
2014,07,04,02,13,10.70
2014,07,04,02,14,10.70
2014,07,04,02,15,10.60
2014,07,04,02,16,10.60
2014,07,04,02,17,10.60
2014,07,04,02,18,10.60
2014,07,04,02,19,10.70
2014,07,04,02,20,10.70
2014,07,04,02,21,10.70
2014,07,04,02,22,10.70
2014,07,04,02,23,10.70
2014,07,04,02,24,10.80
2014,07,04,02,25,10.80
2014,07,04,02,26,10.80
2014,07,04,02,27,10.80
2014,07,04,02,28,10.80
2014,07,04,02,29,10.90
2014,07,04,02,30,10.90
2014,07,04,02,31,10.90
2014,07,04,02,32,10.90
2014,07,04,02,33,11.00
2014,07,04,02,34,11.00
2014,07,04,02,35,11.00
2014,07,04,02,36,11.10
2014,07,04,02,37,11.10
2014,07,04,02,38,11.10
2014,07,04,02,39,11.10
2014,07,04,02,40,11.10
2014,07,04,02,41,11.10
2014,07,04,02,42,11.10
2014,07,04,02,43,11.10
2014,07,04,02,44,11.10
2014,07,04,02,45,11.10
2014,07,04,02,46,11.10
2014,07,04,02,47,11.10
2014,07,04,02,48,11.10
2014,07,04,02,49,11.10
2014,07,04,02,50,11.10
2014,07,04,02,51,11.10
2014,07,04,02,52,11.10
2014,07,04,02,53,11.10
2014,07,04,02,54,11.10
2014,07,04,02,55,11.10
2014,07,04,02,56,11.10
2014,07,04,02,57,11.20
2014,07,04,02,58,11.20
2014,07,04,02,59,11.20
2014,07,04,03,00,11.20
2014,07,04,03,01,11.20
2014,07,04,03,02,11.20
2014,07,04,03,03,11.20
2014,07,04,03,04,11.30
2014,07,04,03,05,11.30
2014,07,04,03,06,11.30
2014,07,04,03,07,11.30
2014,07,04,03,08,11.30
2014,07,04,03,09,11.30
2014,07,04,03,10,11.30
2014,07,04,03,11,11.30
2014,07,04,03,12,11.30
2014,07,04,03,13,11.30
2014,07,04,03,14,11.30
2014,07,04,03,15,11.30
2014,07,04,03,16,11.30
2014,07,04,03,17,11.30
2014,07,04,03,18,11.20
2014,07,04,03,19,11.20
2014,07,04,03,20,11.20
2014,07,04,03,21,11.20
2014,07,04,03,22,11.20
2014,07,04,03,23,11.20
2014,07,04,03,24,11.20
2014,07,04,03,25,11.20
2014,07,04,03,26,11.20
2014,07,04,03,27,11.20
2014,07,04,03,28,11.20
2014,07,04,03,29,11.20
2014,07,04,03,30,11.20
2014,07,04,03,31,11.20
2014,07,04,03,32,11.20
2014,07,04,03,33,11.20
2014,07,04,03,34,11.20
2014,07,04,03,35,11.20
2014,07,04,03,36,11.20
2014,07,04,03,37,11.10
2014,07,04,03,38,11.10
2014,07,04,03,39,11.10
2014,07,04,03,40,11.10
2014,07,04,03,41,11.10
2014,07,04,03,42,11.10
2014,07,04,03,43,11.10
2014,07,04,03,44,11.10
2014,07,04,03,45,11.10
2014,07,04,03,46,11.10
2014,07,04,03,47,11.10
2014,07,04,03,48,11.10
2014,07,04,03,49,11.10
2014,07,04,03,50,11.00
2014,07,04,03,51,11.00
2014,07,04,03,52,11.00
2014,07,04,03,53,10.90
2014,07,04,03,54,10.90
2014,07,04,03,55,10.90
2014,07,04,03,56,10.90
2014,07,04,03,57,10.90
2014,07,04,03,58,10.80
2014,07,04,03,59,10.80
2014,07,04,04,00,10.80
2014,07,04,04,01,10.80
2014,07,04,04,02,10.80
2014,07,04,04,03,10.80
2014,07,04,04,04,10.90
2014,07,04,04,05,10.90
2014,07,04,04,06,11.00
2014,07,04,04,07,11.00
2014,07,04,04,08,11.00
2014,07,04,04,09,11.00
2014,07,04,04,10,11.00
2014,07,04,04,11,11.00
2014,07,04,04,12,11.00
2014,07,04,04,13,11.00
2014,07,04,04,14,11.00
2014,07,04,04,15,11.00
2014,07,04,04,16,11.00
2014,07,04,04,17,11.00
2014,07,04,04,18,11.10
2014,07,04,04,19,11.10
2014,07,04,04,20,11.10
2014,07,04,04,21,11.10
2014,07,04,04,22,11.10
2014,07,04,04,23,11.10
2014,07,04,04,24,11.10
2014,07,04,04,25,11.10
2014,07,04,04,26,11.10
2014,07,04,04,27,11.00
2014,07,04,04,28,11.00
2014,07,04,04,29,11.00
2014,07,04,04,30,11.00
2014,07,04,04,31,11.00
2014,07,04,04,32,11.00
2014,07,04,04,33,11.00
2014,07,04,04,34,11.10
2014,07,04,04,35,11.10
2014,07,04,04,36,11.10
2014,07,04,04,37,11.10
2014,07,04,04,38,11.10
2014,07,04,04,39,11.10
2014,07,04,04,40,11.10
2014,07,04,04,41,11.10
2014,07,04,04,42,11.10
2014,07,04,04,43,11.10
2014,07,04,04,44,11.10
2014,07,04,04,45,11.10
2014,07,04,04,46,11.10
2014,07,04,04,47,11.10
2014,07,04,04,48,11.10
2014,07,04,04,49,11.10
2014,07,04,04,50,11.10
2014,07,04,04,51,11.10
2014,07,04,04,52,11.10
2014,07,04,04,53,11.10
2014,07,04,04,54,11.10
2014,07,04,04,55,11.10
2014,07,04,04,56,11.10
2014,07,04,04,57,11.10
2014,07,04,04,58,11.00
2014,07,04,04,59,11.00
2014,07,04,05,00,11.00
2014,07,04,05,01,11.00
2014,07,04,05,02,10.90
2014,07,04,05,03,10.90
2014,07,04,05,04,10.90
2014,07,04,05,05,10.90
2014,07,04,05,06,10.90
2014,07,04,05,07,10.90
2014,07,04,05,08,10.90
2014,07,04,05,09,10.90
2014,07,04,05,10,10.90
2014,07,04,05,11,10.90
2014,07,04,05,12,10.90
2014,07,04,05,13,10.90
2014,07,04,05,14,10.90
2014,07,04,05,15,10.90
2014,07,04,05,16,10.90
2014,07,04,05,17,10.90
2014,07,04,05,18,10.90
2014,07,04,05,19,10.90
2014,07,04,05,20,10.90
2014,07,04,05,21,11.00
2014,07,04,05,22,11.00
2014,07,04,05,23,11.00
2014,07,04,05,24,11.00
2014,07,04,05,25,11.00
2014,07,04,05,26,11.00
2014,07,04,05,27,11.00
2014,07,04,05,28,10.90
2014,07,04,05,29,10.90
2014,07,04,05,30,10.80
2014,07,04,05,31,10.70
2014,07,04,05,32,10.70
2014,07,04,05,33,10.60
2014,07,04,05,34,10.60
2014,07,04,05,35,10.50
2014,07,04,05,36,10.40
2014,07,04,05,37,10.40
2014,07,04,05,38,10.30
2014,07,04,05,39,10.30
2014,07,04,05,40,10.20
2014,07,04,05,41,10.20
2014,07,04,05,42,10.10
2014,07,04,05,43,10.10
2014,07,04,05,44,10.00
2014,07,04,05,45,10.00
2014,07,04,05,46,9.90
2014,07,04,05,47,9.90
2014,07,04,05,48,9.90
2014,07,04,05,49,9.80
2014,07,04,05,50,9.80
2014,07,04,05,51,9.70
2014,07,04,05,52,9.70
2014,07,04,05,53,9.70
2014,07,04,05,54,9.60
2014,07,04,05,55,9.60
2014,07,04,05,56,9.60
2014,07,04,05,57,9.50
2014,07,04,05,58,9.50
2014,07,04,05,59,9.50
2014,07,04,06,00,9.40
2014,07,04,06,01,9.40
2014,07,04,06,02,9.40
2014,07,04,06,03,9.40
2014,07,04,06,04,9.30
2014,07,04,06,05,9.30
2014,07,04,06,06,9.30
2014,07,04,06,07,9.30
2014,07,04,06,08,9.30
2014,07,04,06,09,9.30
2014,07,04,06,10,9.20
2014,07,04,06,11,9.20
2014,07,04,06,12,9.20
2014,07,04,06,13,9.20
2014,07,04,06,14,9.20
2014,07,04,06,15,9.20
2014,07,04,06,16,9.20
2014,07,04,06,17,9.20
2014,07,04,06,18,9.20
2014,07,04,06,19,9.20
2014,07,04,06,20,9.20
2014,07,04,06,21,9.20
2014,07,04,06,22,9.20
2014,07,04,06,23,9.20
2014,07,04,06,24,9.20
2014,07,04,06,25,9.20
2014,07,04,06,26,9.30
2014,07,04,06,27,9.40
2014,07,04,06,28,9.60
2014,07,04,06,29,9.70
2014,07,04,06,30,9.80
2014,07,04,06,31,10.00
2014,07,04,06,32,10.10
2014,07,04,06,33,10.20
2014,07,04,06,34,10.30
2014,07,04,06,35,10.40
2014,07,04,06,36,10.50
2014,07,04,06,37,10.60
2014,07,04,06,38,10.70
2014,07,04,06,39,10.80
2014,07,04,06,40,10.90
2014,07,04,06,41,11.00
2014,07,04,06,42,11.00
2014,07,04,06,43,11.10
2014,07,04,06,44,11.20
2014,07,04,06,45,11.30
2014,07,04,06,46,11.30
2014,07,04,06,47,11.40
2014,07,04,06,48,11.50
2014,07,04,06,49,11.50
2014,07,04,06,50,11.60
2014,07,04,06,51,11.60
2014,07,04,06,52,11.70
2014,07,04,06,53,11.70
2014,07,04,06,54,11.80
2014,07,04,06,55,11.80
2014,07,04,06,56,11.80
2014,07,04,06,57,11.90
2014,07,04,06,58,11.90
2014,07,04,06,59,12.00
2014,07,04,07,00,12.00
2014,07,04,07,01,12.10
2014,07,04,07,02,12.10
2014,07,04,07,03,12.20
2014,07,04,07,04,12.20
2014,07,04,07,05,12.30
2014,07,04,07,06,12.30
2014,07,04,07,07,12.30
2014,07,04,07,08,12.40
2014,07,04,07,09,12.40
2014,07,04,07,10,12.50
2014,07,04,07,11,12.50
2014,07,04,07,12,12.50
2014,07,04,07,13,12.60
2014,07,04,07,14,12.60
2014,07,04,07,15,12.70
2014,07,04,07,16,12.70
2014,07,04,07,17,12.70
2014,07,04,07,18,12.80
2014,07,04,07,19,12.80
2014,07,04,07,20,12.80
2014,07,04,07,21,12.80
2014,07,04,07,22,12.90
2014,07,04,07,23,12.90
2014,07,04,07,24,12.90
2014,07,04,07,25,13.00
2014,07,04,07,26,13.00
2014,07,04,07,27,13.00
2014,07,04,07,28,13.00
2014,07,04,07,29,13.00
2014,07,04,07,30,13.10
2014,07,04,07,31,13.10
2014,07,04,07,32,13.10
2014,07,04,07,33,13.10
2014,07,04,07,34,13.10
2014,07,04,07,35,13.20
2014,07,04,07,36,13.20
2014,07,04,07,37,13.20
2014,07,04,07,38,13.20
2014,07,04,07,39,13.20
2014,07,04,07,40,13.30
2014,07,04,07,41,13.30
2014,07,04,07,42,13.40
2014,07,04,07,43,13.40
2014,07,04,07,44,13.50
2014,07,04,07,45,13.50
2014,07,04,07,46,13.50
2014,07,04,07,47,13.50
2014,07,04,07,48,13.50
2014,07,04,07,49,13.60
2014,07,04,07,50,13.60
2014,07,04,07,51,13.60
2014,07,04,07,52,13.60
2014,07,04,07,53,13.60
2014,07,04,07,54,13.60
2014,07,04,07,55,13.60
2014,07,04,07,56,13.60
2014,07,04,07,57,13.60
2014,07,04,07,58,13.60
2014,07,04,07,59,13.60
2014,07,04,08,00,13.60
2014,07,04,08,01,13.60
2014,07,04,08,02,13.60
2014,07,04,08,03,13.60
2014,07,04,08,04,13.60
2014,07,04,08,05,13.60
2014,07,04,08,06,13.60
2014,07,04,08,07,13.60
2014,07,04,08,08,13.60
2014,07,04,08,09,13.60
2014,07,04,08,10,13.60
2014,07,04,08,11,13.50
2014,07,04,08,12,13.50
2014,07,04,08,13,13.50
2014,07,04,08,14,13.50
2014,07,04,08,15,13.50
2014,07,04,08,16,13.50
2014,07,04,08,17,13.50
2014,07,04,08,18,13.50
2014,07,04,08,19,13.50
2014,07,04,08,20,13.50
2014,07,04,08,21,13.50
2014,07,04,08,22,13.50
2014,07,04,08,23,13.60
2014,07,04,08,24,13.60
2014,07,04,08,25,13.60
2014,07,04,08,26,13.60
2014,07,04,08,27,13.70
2014,07,04,08,28,13.70
2014,07,04,08,29,13.80
2014,07,04,08,30,13.80
2014,07,04,08,31,13.80
2014,07,04,08,32,13.80
2014,07,04,08,33,13.90
2014,07,04,08,34,13.90
2014,07,04,08,35,13.90
2014,07,04,08,36,14.00
2014,07,04,08,37,14.10
2014,07,04,08,38,14.10
2014,07,04,08,39,14.20
2014,07,04,08,40,14.20
2014,07,04,08,41,14.30
2014,07,04,08,42,14.30
2014,07,04,08,43,14.40
2014,07,04,08,44,14.40
2014,07,04,08,45,14.50
2014,07,04,08,46,14.50
2014,07,04,08,47,14.60
2014,07,04,08,48,14.70
2014,07,04,08,49,14.70
2014,07,04,08,50,14.80
2014,07,04,08,51,14.90
2014,07,04,08,52,14.90
2014,07,04,08,53,14.90
2014,07,04,08,54,14.90
2014,07,04,08,55,15.00
2014,07,04,08,56,15.00
2014,07,04,08,57,15.10
2014,07,04,08,58,15.10
2014,07,04,08,59,15.20
2014,07,04,09,00,15.30
2014,07,04,09,01,15.30
2014,07,04,09,02,15.30
2014,07,04,09,03,15.30
2014,07,04,09,04,15.30
2014,07,04,09,05,15.40
2014,07,04,09,06,15.40
2014,07,04,09,07,15.50
2014,07,04,09,08,15.60
2014,07,04,09,09,15.60
2014,07,04,09,10,15.60
2014,07,04,09,11,15.60
2014,07,04,09,12,15.60
2014,07,04,09,13,15.60
2014,07,04,09,14,15.60
2014,07,04,09,15,15.70
2014,07,04,09,16,15.70
2014,07,04,09,17,15.70
2014,07,04,09,18,15.70
2014,07,04,09,19,15.80
2014,07,04,09,20,15.80
2014,07,04,09,21,15.80
2014,07,04,09,22,15.90
2014,07,04,09,23,15.90
2014,07,04,09,24,16.00
2014,07,04,09,25,16.00
2014,07,04,09,26,16.10
2014,07,04,09,27,16.20
2014,07,04,09,28,16.30
2014,07,04,09,29,16.30
2014,07,04,09,30,16.30
2014,07,04,09,31,16.40
2014,07,04,09,32,16.40
2014,07,04,09,33,16.40
2014,07,04,09,34,16.40
2014,07,04,09,35,16.40
2014,07,04,09,36,16.40
2014,07,04,09,37,16.30
2014,07,04,09,38,16.30
2014,07,04,09,39,16.30
2014,07,04,09,40,16.30
2014,07,04,09,41,16.40
2014,07,04,09,42,16.50
2014,07,04,09,43,16.50
2014,07,04,09,44,16.60
2014,07,04,09,45,16.60
2014,07,04,09,46,16.50
2014,07,04,09,47,16.50
2014,07,04,09,48,16.50
2014,07,04,09,49,16.40
2014,07,04,09,50,16.40
2014,07,04,09,51,16.40
2014,07,04,09,52,16.40
2014,07,04,09,53,16.40
2014,07,04,09,54,16.40
2014,07,04,09,55,16.40
2014,07,04,09,56,16.40
2014,07,04,09,57,16.40
2014,07,04,09,58,16.50
2014,07,04,09,59,16.50
2014,07,04,10,00,16.50
2014,07,04,10,01,16.60
2014,07,04,10,02,16.60
2014,07,04,10,03,16.60
2014,07,04,10,04,16.60
2014,07,04,10,05,16.50
2014,07,04,10,06,16.50
2014,07,04,10,07,16.40
2014,07,04,10,08,16.40
2014,07,04,10,09,16.30
2014,07,04,10,10,16.20
2014,07,04,10,11,16.20
2014,07,04,10,12,16.20
2014,07,04,10,13,16.30
2014,07,04,10,14,16.30
2014,07,04,10,15,16.40
2014,07,04,10,16,16.40
2014,07,04,10,17,16.50
2014,07,04,10,18,16.60
2014,07,04,10,19,16.60
2014,07,04,10,20,16.70
2014,07,04,10,21,16.70
2014,07,04,10,22,16.70
2014,07,04,10,23,16.70
2014,07,04,10,24,16.70
2014,07,04,10,25,16.80
2014,07,04,10,26,16.80
2014,07,04,10,27,16.80
2014,07,04,10,28,16.90
2014,07,04,10,29,16.90
2014,07,04,10,30,17.00
2014,07,04,10,31,17.10
2014,07,04,10,32,17.20
2014,07,04,10,33,17.30
2014,07,04,10,34,17.40
2014,07,04,10,35,17.40
2014,07,04,10,36,17.50
2014,07,04,10,37,17.60
2014,07,04,10,38,17.60
2014,07,04,10,39,17.60
2014,07,04,10,40,17.50
2014,07,04,10,41,17.50
2014,07,04,10,42,17.50
2014,07,04,10,43,17.50
2014,07,04,10,44,17.60
2014,07,04,10,45,17.70
2014,07,04,10,46,17.70
2014,07,04,10,47,17.80
2014,07,04,10,48,17.80
2014,07,04,10,49,17.90
2014,07,04,10,50,17.90
2014,07,04,10,51,17.90
2014,07,04,10,52,17.90
2014,07,04,10,53,17.80
2014,07,04,10,54,17.80
2014,07,04,10,55,17.90
2014,07,04,10,56,17.90
2014,07,04,10,57,17.90
2014,07,04,10,58,17.90
2014,07,04,10,59,17.90
2014,07,04,11,00,18.00
2014,07,04,11,01,18.00
2014,07,04,11,02,18.10
2014,07,04,11,03,18.10
2014,07,04,11,04,18.10
2014,07,04,11,05,18.10
2014,07,04,11,06,18.00
2014,07,04,11,07,18.00
2014,07,04,11,08,18.00
2014,07,04,11,09,18.00
2014,07,04,11,10,18.00
2014,07,04,11,11,18.00
2014,07,04,11,12,17.90
2014,07,04,11,13,17.90
2014,07,04,11,14,17.90
2014,07,04,11,15,17.90
2014,07,04,11,16,17.90
2014,07,04,11,17,17.90
2014,07,04,11,18,17.90
2014,07,04,11,19,17.90
2014,07,04,11,20,17.90
2014,07,04,11,21,17.90
2014,07,04,11,22,17.90
2014,07,04,11,23,18.00
2014,07,04,11,24,18.00
2014,07,04,11,25,17.90
2014,07,04,11,26,17.90
2014,07,04,11,27,18.00
2014,07,04,11,28,18.10
2014,07,04,11,29,18.20
2014,07,04,11,30,18.20
2014,07,04,11,31,18.20
2014,07,04,11,32,18.20
2014,07,04,11,33,18.20
2014,07,04,11,34,18.20
2014,07,04,11,35,18.20
2014,07,04,11,36,18.20
2014,07,04,11,37,18.20
2014,07,04,11,38,18.30
2014,07,04,11,39,18.30
2014,07,04,11,40,18.40
2014,07,04,11,41,18.40
2014,07,04,11,42,18.40
2014,07,04,11,43,18.40
2014,07,04,11,44,18.50
2014,07,04,11,45,18.50
2014,07,04,11,46,18.50
2014,07,04,11,47,18.60
2014,07,04,11,48,18.60
2014,07,04,11,49,18.70
2014,07,04,11,50,18.70
2014,07,04,11,51,18.60
2014,07,04,11,52,18.60
2014,07,04,11,53,18.60
2014,07,04,11,54,18.60
2014,07,04,11,55,18.60
2014,07,04,11,56,18.70
2014,07,04,11,57,18.80
2014,07,04,11,58,18.90
2014,07,04,11,59,18.90
2014,07,04,12,00,18.90
2014,07,04,12,01,19.00
2014,07,04,12,02,19.00
2014,07,04,12,03,19.00
2014,07,04,12,04,19.00
2014,07,04,12,05,19.00
2014,07,04,12,06,19.00
2014,07,04,12,07,19.10
2014,07,04,12,08,19.10
2014,07,04,12,09,19.20
2014,07,04,12,10,19.20
2014,07,04,12,11,19.30
2014,07,04,12,12,19.20
2014,07,04,12,13,19.30
2014,07,04,12,14,19.30
2014,07,04,12,15,19.30
2014,07,04,12,16,19.20
2014,07,04,12,17,19.20
2014,07,04,12,18,19.30
2014,07,04,12,19,19.30
2014,07,04,12,20,19.30
2014,07,04,12,21,19.40
2014,07,04,12,22,19.40
2014,07,04,12,23,19.50
2014,07,04,12,24,19.60
2014,07,04,12,25,19.60
2014,07,04,12,26,19.60
2014,07,04,12,27,19.70
2014,07,04,12,28,19.60
2014,07,04,12,29,19.60
2014,07,04,12,30,19.50
2014,07,04,12,31,19.50
2014,07,04,12,32,19.50
2014,07,04,12,33,19.40
2014,07,04,12,34,19.50
2014,07,04,12,35,19.50
2014,07,04,12,36,19.50
2014,07,04,12,37,19.50
2014,07,04,12,38,19.50
2014,07,04,12,39,19.60
2014,07,04,12,40,19.60
2014,07,04,12,41,19.60
2014,07,04,12,42,19.50
2014,07,04,12,43,19.40
2014,07,04,12,44,19.40
2014,07,04,12,45,19.40
2014,07,04,12,46,19.40
2014,07,04,12,47,19.30
2014,07,04,12,48,19.40
2014,07,04,12,49,19.40
2014,07,04,12,50,19.40
2014,07,04,12,51,19.40
2014,07,04,12,52,19.40
2014,07,04,12,53,19.40
2014,07,04,12,54,19.40
2014,07,04,12,55,19.40
2014,07,04,12,56,19.50
2014,07,04,12,57,19.50
2014,07,04,12,58,19.60
2014,07,04,12,59,19.70
2014,07,04,13,00,19.80
2014,07,04,13,01,19.80
2014,07,04,13,02,19.80
2014,07,04,13,03,19.80
2014,07,04,13,04,19.80
2014,07,04,13,05,19.80
2014,07,04,13,06,19.80
2014,07,04,13,07,19.80
2014,07,04,13,08,19.80
2014,07,04,13,09,19.80
2014,07,04,13,10,19.90
2014,07,04,13,11,19.90
2014,07,04,13,12,20.00
2014,07,04,13,13,20.00
2014,07,04,13,14,20.10
2014,07,04,13,15,20.10
2014,07,04,13,16,20.10
2014,07,04,13,17,20.10
2014,07,04,13,18,20.10
2014,07,04,13,19,20.10
2014,07,04,13,20,20.10
2014,07,04,13,21,20.10
2014,07,04,13,22,20.10
2014,07,04,13,23,20.10
2014,07,04,13,24,20.00
2014,07,04,13,25,20.00
2014,07,04,13,26,19.90
2014,07,04,13,27,19.90
2014,07,04,13,28,19.90
2014,07,04,13,29,19.90
2014,07,04,13,30,19.90
2014,07,04,13,31,19.80
2014,07,04,13,32,19.80
2014,07,04,13,33,19.80
2014,07,04,13,34,19.80
2014,07,04,13,35,19.70
2014,07,04,13,36,19.70
2014,07,04,13,37,19.60
2014,07,04,13,38,19.60
2014,07,04,13,39,19.70
2014,07,04,13,40,19.70
2014,07,04,13,41,19.70
2014,07,04,13,42,19.70
2014,07,04,13,43,19.60
2014,07,04,13,44,19.60
2014,07,04,13,45,19.60
2014,07,04,13,46,19.60
2014,07,04,13,47,19.60
2014,07,04,13,48,19.60
2014,07,04,13,49,19.70
2014,07,04,13,50,19.70
2014,07,04,13,51,19.70
2014,07,04,13,52,19.70
2014,07,04,13,53,19.70
2014,07,04,13,54,19.60
2014,07,04,13,55,19.60
2014,07,04,13,56,19.50
2014,07,04,13,57,19.40
2014,07,04,13,58,19.40
2014,07,04,13,59,19.40
2014,07,04,14,00,19.40
2014,07,04,14,01,19.40
2014,07,04,14,02,19.30
2014,07,04,14,03,19.30
2014,07,04,14,04,19.40
2014,07,04,14,05,19.40
2014,07,04,14,06,19.40
2014,07,04,14,07,19.40
2014,07,04,14,08,19.40
2014,07,04,14,09,19.30
2014,07,04,14,10,19.30
2014,07,04,14,11,19.30
2014,07,04,14,12,19.30
2014,07,04,14,13,19.30
2014,07,04,14,14,19.20
2014,07,04,14,15,19.30
2014,07,04,14,16,19.30
2014,07,04,14,17,19.30
2014,07,04,14,18,19.30
2014,07,04,14,19,19.30
2014,07,04,14,20,19.30
2014,07,04,14,21,19.20
2014,07,04,14,22,19.10
2014,07,04,14,23,18.90
2014,07,04,14,24,18.80
2014,07,04,14,25,18.70
2014,07,04,14,26,18.60
2014,07,04,14,27,18.50
2014,07,04,14,28,18.50
2014,07,04,14,29,18.40
2014,07,04,14,30,18.40
2014,07,04,14,31,18.40
2014,07,04,14,32,18.30
2014,07,04,14,33,18.30
2014,07,04,14,34,18.30
2014,07,04,14,35,18.30
2014,07,04,14,36,18.30
2014,07,04,14,37,18.20
2014,07,04,14,38,18.20
2014,07,04,14,39,18.10
2014,07,04,14,40,18.10
2014,07,04,14,41,18.00
2014,07,04,14,42,18.00
2014,07,04,14,43,18.00
2014,07,04,14,44,17.90
2014,07,04,14,45,17.90
2014,07,04,14,46,17.90
2014,07,04,14,47,17.90
2014,07,04,14,48,17.90
2014,07,04,14,49,17.90
2014,07,04,14,50,17.90
2014,07,04,14,51,17.90
2014,07,04,14,52,17.80
2014,07,04,14,53,17.80
2014,07,04,14,54,17.80
2014,07,04,14,55,17.80
2014,07,04,14,56,17.90
2014,07,04,14,57,17.90
2014,07,04,14,58,17.90
2014,07,04,14,59,17.90
2014,07,04,15,00,17.90
2014,07,04,15,01,17.90
2014,07,04,15,02,17.90
2014,07,04,15,03,17.90
2014,07,04,15,04,17.90
2014,07,04,15,05,17.90
2014,07,04,15,06,17.90
2014,07,04,15,07,17.90
2014,07,04,15,08,17.90
2014,07,04,15,09,17.80
2014,07,04,15,10,17.80
2014,07,04,15,11,17.80
2014,07,04,15,12,17.80
2014,07,04,15,13,17.80
2014,07,04,15,14,17.80
2014,07,04,15,15,17.80
2014,07,04,15,16,17.70
2014,07,04,15,17,17.80
2014,07,04,15,18,17.80
2014,07,04,15,19,17.80
2014,07,04,15,20,17.80
2014,07,04,15,21,17.80
2014,07,04,15,22,17.80
2014,07,04,15,23,17.80
2014,07,04,15,24,17.70
2014,07,04,15,25,17.70
2014,07,04,15,26,17.70
2014,07,04,15,27,17.70
2014,07,04,15,28,17.70
2014,07,04,15,29,17.70
2014,07,04,15,30,17.70
2014,07,04,15,31,17.70
2014,07,04,15,32,17.70
2014,07,04,15,33,17.70
2014,07,04,15,34,17.60
2014,07,04,15,35,17.60
2014,07,04,15,36,17.60
2014,07,04,15,37,17.60
2014,07,04,15,38,17.60
2014,07,04,15,39,17.60
2014,07,04,15,40,17.60
2014,07,04,15,41,17.60
2014,07,04,15,42,17.50
2014,07,04,15,43,17.50
2014,07,04,15,44,17.50
2014,07,04,15,45,17.50
2014,07,04,15,46,17.40
2014,07,04,15,47,17.40
2014,07,04,15,48,17.40
2014,07,04,15,49,17.40
2014,07,04,15,50,17.40
2014,07,04,15,51,17.40
2014,07,04,15,52,17.40
2014,07,04,15,53,17.30
2014,07,04,15,54,17.30
2014,07,04,15,55,17.30
2014,07,04,15,56,17.30
2014,07,04,15,57,17.30
2014,07,04,15,58,17.30
2014,07,04,15,59,17.30
2014,07,04,16,00,17.20
2014,07,04,16,01,17.20
2014,07,04,16,02,17.20
2014,07,04,16,03,17.10
2014,07,04,16,04,17.10
2014,07,04,16,05,17.10
2014,07,04,16,06,17.10
2014,07,04,16,07,17.00
2014,07,04,16,08,17.00
2014,07,04,16,09,17.00
2014,07,04,16,10,17.00
2014,07,04,16,11,17.00
2014,07,04,16,12,17.00
2014,07,04,16,13,17.00
2014,07,04,16,14,16.90
2014,07,04,16,15,16.90
2014,07,04,16,16,16.90
2014,07,04,16,17,16.90
2014,07,04,16,18,16.90
2014,07,04,16,19,16.90
2014,07,04,16,20,16.90
2014,07,04,16,21,16.90
2014,07,04,16,22,16.90
2014,07,04,16,23,16.90
2014,07,04,16,24,16.90
2014,07,04,16,25,16.90
2014,07,04,16,26,16.90
2014,07,04,16,27,16.90
2014,07,04,16,28,16.90
2014,07,04,16,29,16.90
2014,07,04,16,30,16.90
2014,07,04,16,31,16.90
2014,07,04,16,32,16.90
2014,07,04,16,33,16.80
2014,07,04,16,34,16.80
2014,07,04,16,35,16.80
2014,07,04,16,36,16.80
2014,07,04,16,37,16.80
2014,07,04,16,38,16.80
2014,07,04,16,39,16.80
2014,07,04,16,40,16.80
2014,07,04,16,41,16.70
2014,07,04,16,42,16.70
2014,07,04,16,43,16.60
2014,07,04,16,44,16.60
2014,07,04,16,45,16.50
2014,07,04,16,46,16.50
2014,07,04,16,47,16.40
2014,07,04,16,48,16.40
2014,07,04,16,49,16.30
2014,07,04,16,50,16.20
2014,07,04,16,51,16.20
2014,07,04,16,52,16.20
2014,07,04,16,53,16.10
2014,07,04,16,54,16.00
2014,07,04,16,55,16.00
2014,07,04,16,56,15.90
2014,07,04,16,57,15.90
2014,07,04,16,58,15.80
2014,07,04,16,59,15.80
2014,07,04,17,00,15.70
2014,07,04,17,01,15.70
2014,07,04,17,02,15.70
2014,07,04,17,03,15.70
2014,07,04,17,04,15.60
2014,07,04,17,05,15.60
2014,07,04,17,06,15.60
2014,07,04,17,07,15.50
2014,07,04,17,08,15.50
2014,07,04,17,09,15.40
2014,07,04,17,10,15.40
2014,07,04,17,11,15.40
2014,07,04,17,12,15.30
2014,07,04,17,13,15.30
2014,07,04,17,14,15.30
2014,07,04,17,15,15.30
2014,07,04,17,16,15.20
2014,07,04,17,17,15.20
2014,07,04,17,18,15.20
2014,07,04,17,19,15.20
2014,07,04,17,20,15.20
2014,07,04,17,21,15.20